Location: Saluda
(35.2377°N, 82.3468°W)
Time: 16:27:55
(UTC+00:00)

Explorer 11/Cluster Stage 4 - Pass Details

Date: 07 October 2022
Orbit: 466 x 1247 km, 28.8° (Epoch: 08 December)

Event Time Altitude Azimuth Distance (km) Brightness Sun altitude
Rises 14:32:35 0° 233° (SW) 3,989 10.1 33.7°
Reaches altitude 10° 14:35:32 10° 225° (SW) 3,103 9.7 34.2°
Maximum altitude 14:42:41 37° 161° (SSE) 1,817 9.9 35.3°
Drops below altitude 10° 14:50:00 10° 98° (E) 3,187 10.6 36.4°
Sets 14:53:04 0° 90° (E) 4,108 10.8 36.9°
